Temperature
23 24 25 26 26 26 24 22 22 23 22 22 22 22 23 23 23 23 23 23 23 22 22 21 21 21 20 20 19 19 19 18 18 18 18 17 17 17 17 17 16 16 16 16
24 25 26 26 26 26 25 24 24 23 23 22 23 23 23 23 23 22 22 22 22 22 22 21 21 20 20 19 19 19 18 18 18 18 17 17 17 17 16 16 16 16 16 15
21 24 25 24 25 25 25 25 24 23 23 22 22 22 22 23 23 22 22 22 22 22 21 21 20 20 20 19 19 19 18 18 18 17 17 17 16 16 16 16 16 15 15 15
20 23 23 22 23 25 24 24 23 23 23 22 22 23 23 23 23 22 22 22 22 21 21 20 20 20 20 19 19 18 18 18 17 17 16 16 16 16 16 15 15 15 15 15
18 20 22 23 24 24 24 23 23 22 22 23 23 22 21 22 23 23 22 22 22 21 21 20 20 20 19 19 18 18 18 17 17 16 16 16 16 15 15 15 15 14 14 14
18 21 21 22 23 25 23 22 22 22 22 22 22 20 19 21 22 22 22 22 21 21 20 20 20 19 19 18 18 18 17 17 16 16 16 15 15 15 15 15 14 14 14 13
18 20 20 21 23 24 22 21 22 23 23 23 21 21 22 21 22 21 21 21 21 20 20 20 19 19 19 18 17 17 16 16 16 16 15 15 15 14 14 14 14 14 13 13
17 19 19 21 21 21 20 22 23 23 23 23 22 22 21 21 21 21 21 20 20 20 19 19 19 18 18 18 17 16 16 16 15 15 15 15 14 14 14 14 13 13 13 13
17 17 19 21 21 21 22 22 22 22 23 23 21 21 21 20 20 20 20 20 19 19 18 18 18 18 17 17 16 16 15 15 15 15 14 14 14 14 13 13 13 13 13 13
16 17 18 20 21 22 22 22 22 23 23 22 21 20 20 20 19 19 19 19 18 18 18 17 17 17 17 16 16 15 15 15 14 14 14 14 13 13 13 13 13 13 13 12
16 17 18 19 20 21 21 22 22 22 22 22 21 19 19 19 19 19 18 18 18 17 17 16 16 16 16 16 15 15 15 14 14 14 14 13 13 13 13 13 13 13 12 12
15 16 16 17 19 20 20 21 20 20 20 20 20 19 19 18 18 18 17 17 17 17 16 16 15 15 15 15 15 15 14 14 14 13 13 13 13 13 12 12 12 12 12 12
17 17 17 18 19 20 20 20 20 20 19 19 19 19 18 18 17 17 16 16 16 16 16 15 15 15 15 15 14 14 14 14 14 13 13 13 13 13 12 12 12 12 11 11
17 18 17 17 18 19 19 19 19 18 18 18 18 18 17 17 16 16 16 16 16 16 15 15 15 14 14 14 14 14 14 14 13 13 13 13 12 12 12 12 12 11 11 11
17 17 17 17 17 18 18 18 17 17 17 17 17 17 17 16 16 16 15 15 15 15 15 14 14 14 14 14 14 14 13 13 13 13 12 12 12 12 12 12 11 11 11 10
16 17 17 17 17 17 17 17 17 16 16 16 16 16 16 15 15 15 15 15 15 14 14 14 14 14 13 13 13 13 13 13 13 13 12 12 12 11 11 11 11 11 11 10
16 16 16 16 16 16 16 16 16 16 16 15 15 15 15 15 14 14 14 14 14 14 14 13 13 13 13 13 13 13 13 13 12 12 12 12 12 11 11 11 11 10 10 10
16 16 16 16 16 16 16 15 15 15 15 15 15 14 14 14 14 14 13 13 13 13 13 13 13 13 13 13 13 13 13 12 12 12 12 12 11 11 11 11 10 10 10 10
16 16 15 16 16 15 15 15 15 15 15 14 14 14 14 14 13 13 13 13 13 12 12 12 12 13 12 12 12 12 12 12 12 12 12 11 11 11 11 10 10 10 10 9
15 15 15 15 15 15 15 14 14 14 14 14 13 13 13 13 13 13 13 12 12 12 12 12 12 12 12 12 12 12 12 12 12 11 11 11 11 10 10 10 10 10 9 9
14 14 14 14 14 14 14 14 14 14 13 13 13 12 12 12 12 12 12 12 12 12 12 12 12 12 12 12 12 12 12 12 11 11 11 11 11 10 10 10 10 10 9 9
13 13 13 13 13 13 13 13 13 13 13 12 12 12 12 12 12 12 12 12 12 12 12 12 12 12 12 11 11 11 11 11 11 11 11 11 10 10 10 10 10 9 9 9
13 13 13 13 13 13 13 13 13 13 12 12 12 12 12 12 12 12 12 12 12 11 11 11 11 11 11 11 11 11 11 11 11 11 11 10 10 10 10 10 9 9 9 9
12 12 12 12 12 12 12 12 12 12 12 12 12 12 12 11 11 11 11 11 11 11 11 11 11 11 11 11 11 11 11 11 11 11 10 10 10 10 10 9 9 9 9 8
12 12 12 12 12 12 12 12 12 11 11 11 11 11 11 11 11 11 11 11 11 11 11 11 11 11 11 11 11 11 11 11 10 10 10 10 10 9 9 9 9 9 8 8
11 11 11 11 11 11 11 11 11 11 11 11 11 11 11 11 11 11 11 11 10 10 10 10 10 10 10 10 10 10 10 10 10 10 10 9 9 9 9 9 9 8 8 8
11 11 11 11 11 11 11 11 11 11 11 11 10 10 10 10 10 10 10 10 10 10 10 10 10 10 10 10 10 10 10 9 9 9 9 9 9 9 9 9 8 8 8 8
Wind_Speed
7 7 4 4 5 5 6 9 9 8 8 9 10 11 11 11 11 11 11 11 11 9 8 8 7 7 7 7 6 6 7 6 5 5 5 5 4 4 4 4 4 4 5 5
2 2 2 2 4 5 6 6 7 7 6 7 8 9 10 12 13 12 11 11 11 10 10 9 8 8 8 7 6 7 7 6 6 6 6 5 5 5 5 5 5 6 5 6
2 1 2 4 6 5 4 4 7 8 8 7 9 11 13 12 12 12 12 11 10 10 10 9 9 9 8 8 7 7 7 7 6 6 6 5 6 6 6 5 6 7 7 7
3 3 5 9 5 5 4 2 4 7 8 10 12 10 7 9 12 11 11 10 9 9 9 8 8 8 8 8 8 8 7 6 6 6 6 6 6 7 6 6 7 7 7 7
4 4 4 6 3 3 5 3 3 7 8 9 11 9 5 3 8 9 10 9 8 8 9 9 9 9 10 8 7 8 7 6 6 7 7 7 7 6 6 7 7 7 6 7
5 5 6 7 6 2 6 1 4 7 11 11 10 7 4 4 8 9 8 8 8 9 9 9 9 9 10 9 8 8 7 6 6 7 7 7 7 6 6 6 7 6 7 7
4 3 5 6 6 3 4 7 5 6 10 10 7 8 8 8 9 9 9 9 9 10 9 8 8 10 10 9 8 7 8 7 7 6 6 7 6 6 6 6 7 7 7 6
5 4 6 5 3 3 6 4 3 5 8 10 10 11 11 11 10 10 9 9 9 9 8 7 8 9 9 8 7 8 9 8 7 6 6 6 6 6 6 6 7 6 6 6
6 6 5 1 2 2 4 5 3 6 8 13 13 12 12 10 9 9 9 8 8 9 8 7 7 9 10 8 9 9 9 8 8 7 6 5 5 5 5 5 5 5 5 5
3 0 1 2 3 4 4 5 5 8 11 13 13 13 11 10 9 8 7 8 8 9 8 7 6 7 8 9 9 10 10 8 7 8 7 6 5 4 4 4 5 5 5 5
2 1 4 5 5 4 5 7 9 9 11 12 14 12 11 10 8 7 7 7 8 8 8 7 7 7 7 9 11 11 10 8 7 7 7 6 6 5 3 2 3 6 5 5
2 3 2 2 2 3 7 7 8 10 9 9 10 12 11 9 7 7 8 8 8 8 7 7 8 8 7 8 10 11 9 8 6 6 6 6 6 6 10 7 7 7 7 7
3 1 2 1 2 4 6 7 7 8 9 9 8 10 10 9 7 7 8 8 8 8 7 7 8 8 7 8 9 9 9 8 7 6 6 5 5 6 5 6 10 10 8 9
2 4 4 4 3 5 6 7 7 8 7 8 8 9 9 9 8 8 8 7 7 7 7 7 8 7 7 8 8 8 8 8 8 6 6 6 5 5 5 6 5 4 5 6
2 4 5 4 5 6 6 7 8 7 7 7 7 9 9 9 8 7 7 7 7 7 6 7 7 6 6 8 8 8 7 6 6 6 6 6 6 5 5 5 5 4 3 3
3 5 5 7 7 7 6 6 7 5 6 6 6 7 8 8 8 7 7 7 8 7 6 6 6 6 6 7 8 7 6 9 8 7 6 6 6 6 5 5 5 4 3 2
5 3 3 5 5 5 5 5 6 6 6 6 6 6 8 8 8 7 6 6 6 6 5 6 6 6 6 7 7 6 6 7 9 7 6 6 6 6 5 5 5 4 3 3
5 5 5 7 6 6 6 6 6 7 6 6 6 7 8 8 8 7 6 6 6 5 4 5 6 6 6 6 6 5 5 5 5 6 5 5 6 6 6 5 6 5 3 4
4 4 3 5 5 6 6 6 7 7 7 7 6 6 6 7 7 7 7 7 7 5 3 4 7 7 6 6 6 5 6 6 5 5 5 8 7 6 5 5 5 5 5 5
4 4 5 5 4 5 6 6 7 7 7 7 6 6 6 5 6 7 7 6 4 4 5 6 7 5 5 6 6 5 5 6 6 6 6 6 6 6 5 5 5 5 5 5
4 4 5 5 4 4 5 6 7 7 7 7 7 7 6 6 6 6 7 5 3 5 6 8 5 4 4 5 6 5 5 6 6 6 6 6 6 6 5 5 5 5 5 5
2 4 5 5 5 5 4 5 7 8 7 6 6 6 7 7 6 5 4 4 5 8 6 5 4 5 7 7 5 5 5 6 6 5 5 5 6 6 5 6 5 5 5 5
2 3 4 4 5 5 5 5 6 7 7 7 7 7 7 6 5 6 4 2 4 8 6 5 6 8 9 6 5 5 6 6 6 6 5 5 5 5 5 6 5 5 5 5
3 4 4 4 5 6 5 4 4 5 6 6 6 7 7 6 4 3 4 7 8 8 5 6 9 9 8 5 5 5 5 5 6 6 5 5 5 5 5 5 5 5 5 6
3 4 4 5 5 4 5 5 6 6 6 5 6 6 5 5 5 5 5 6 8 8 6 7 10 9 6 5 5 5 5 5 6 6 6 6 5 5 5 5 5 4 4 4
3 3 3 3 4 4 4 5 4 4 5 5 4 4 4 4 6 5 5 7 8 7 6 5 5 6 5 6 6 5 5 6 6 5 5 5 5 5 4 4 5 4 4 4
3 3 3 3 3 4 4 4 4 4 4 5 5 4 5 5 6 6 6 6 6 5 5 4 4 5 5 5 5 5 5 5 5 5 4 4 4 4 4 5 4 4 5 5
Wind_Direction
196 209 188 200 215 201 180 181 180 207 198 206 184 162 153 144 141 138 141 144 146 142 140 140 137 134 133 130 128 124 116 114 116 112 106 99 91 80 75 78 81 82 75 69
203 229 177 229 237 223 204 186 181 172 209 212 179 146 140 147 146 147 150 149 148 146 145 145 144 141 136 130 126 119 117 117 111 105 100 94 90 82 78 74 74 77 73 79
202 288 85 254 232 215 211 204 170 185 207 170 151 155 159 155 150 153 153 150 151 151 151 150 149 144 138 131 123 117 116 113 109 108 104 99 98 87 81 76 75 76 73 76
132 106 207 243 245 166 157 210 174 168 174 167 164 160 153 150 148 148 148 147 150 147 144 142 137 132 126 121 123 121 119 116 113 110 108 102 98 95 87 82 82 81 77 76
123 159 260 292 294 174 162 237 208 162 155 145 130 95 68 128 144 150 150 145 145 144 139 136 136 133 126 124 127 124 123 120 118 120 117 112 108 103 95 93 87 81 80 79
122 147 212 249 285 263 120 240 269 155 151 145 124 129 187 166 133 128 126 127 126 125 124 131 140 136 130 132 131 129 127 121 116 119 120 119 117 108 98 97 96 91 81 76
141 174 248 260 297 51 140 217 237 158 151 143 144 163 162 140 124 123 123 122 120 122 127 136 140 134 130 130 133 130 120 114 111 111 113 116 111 108 108 104 99 91 86 73
145 169 244 292 20 131 202 204 160 138 138 130 125 121 125 127 125 124 120 119 119 122 122 124 127 129 129 129 130 124 119 116 110 106 111 112 109 109 111 113 104 96 91 77
176 199 232 260 141 188 158 130 125 132 130 124 122 126 129 127 126 125 123 121 119 121 119 116 123 131 132 134 130 123 118 115 109 97 87 96 109 116 117 116 114 111 105 100
94 69 10 36 53 45 84 113 112 123 126 124 125 129 125 125 125 124 122 123 122 118 120 120 120 124 131 134 129 123 119 115 109 102 87 73 76 87 107 116 122 122 122 119
93 152 41 22 26 49 76 92 98 106 115 121 124 127 128 127 127 125 122 123 125 125 127 127 123 123 127 131 128 123 121 118 110 105 103 87 72 58 79 87 155 147 147 144
200 231 157 237 329 77 95 103 113 113 108 115 127 130 127 127 127 127 127 126 124 123 125 128 129 130 131 133 132 131 131 129 125 121 117 115 110 82 51 59 75 105 130 132
178 197 148 126 56 74 93 98 102 114 124 121 118 127 127 127 127 126 126 127 130 131 132 135 136 139 143 141 138 140 142 142 138 135 134 133 130 124 106 59 57 68 95 110
120 99 71 57 67 70 86 88 89 97 102 112 118 120 121 122 125 126 128 130 126 124 128 134 137 142 148 144 140 141 143 146 145 147 147 143 137 131 129 129 114 68 53 88
67 106 130 111 82 75 86 94 93 95 99 103 113 118 122 126 130 131 128 124 119 119 127 132 136 146 149 146 143 143 142 146 146 146 146 142 139 131 126 126 125 119 94 61
91 85 102 103 99 95 97 102 107 112 113 110 111 119 123 126 126 125 126 128 131 136 140 141 144 150 147 144 140 139 140 142 141 140 141 142 143 141 140 139 137 137 143 148
125 129 134 125 119 120 123 130 134 135 123 117 119 127 127 125 123 125 127 128 132 137 140 142 148 145 143 143 142 142 139 142 138 134 139 147 149 148 148 148 149 152 164 158
156 169 172 158 146 137 134 135 133 129 128 127 126 130 136 140 144 144 139 131 122 114 118 135 140 137 138 141 141 139 140 141 143 144 144 144 143 142 142 144 148 146 137 127
122 129 141 141 139 137 132 133 134 129 125 127 132 138 144 144 144 143 140 138 139 142 153 141 136 135 138 143 138 133 132 132 132 134 134 136 132 131 134 138 139 140 134 128
98 100 107 113 118 123 130 134 132 129 129 135 135 131 131 136 138 139 139 143 160 165 155 140 134 134 139 140 135 137 140 140 139 138 134 134 134 135 135 138 140 138 136 137
111 115 114 115 121 127 138 140 136 137 138 138 139 143 141 137 137 138 139 140 154 141 138 137 138 141 142 142 137 136 139 140 142 141 138 136 135 137 143 145 146 145 143 143
101 120 126 131 128 121 123 130 137 141 140 137 134 135 132 131 132 125 122 142 147 137 133 131 129 135 141 136 131 131 135 139 139 136 136 137 138 142 146 146 146 146 146 149
94 117 123 127 128 126 119 122 131 139 141 142 143 143 140 138 139 136 133 137 137 131 126 126 129 131 131 125 128 127 129 133 135 136 136 134 134 137 140 142 143 143 144 146
99 108 112 110 115 116 119 128 127 130 132 134 137 138 136 130 117 112 126 134 131 122 114 118 118 120 120 118 119 119 124 129 130 130 128 128 129 129 133 139 143 145 147 147
113 116 118 119 123 132 134 127 116 115 118 121 123 126 128 133 136 136 128 129 128 117 111 116 115 113 109 111 115 115 118 124 128 129 127 129 131 132 135 139 143 143 144 147
115 122 127 133 136 136 135 130 127 127 127 124 123 125 120 119 122 124 122 124 124 120 119 121 118 108 105 109 110 113 118 122 121 122 130 130 130 136 144 148 146 148 149 153
93 91 99 103 107 120 128 131 135 136 137 138 134 131 128 124 122 122 120 118 117 116 120 123 119 114 113 113 110 115 118 117 118 121 127 131 137 147 153 149 149 151 151 153
Height
1486 1483 1482 1484 1485 1487 1496 1504 1513 1510 1508 1501 1497 1497 1499 1502 1505 1507 1509 1511 1514 1516 1519 1522 1524 1526 1528 1529 1530 1531 1532 1533 1533 1533 1534 1533 1533 1532 1532 1531 1530 1530 1530 1530
1484 1479 1479 1483 1482 1483 1486 1490 1495 1498 1500 1491 1493 1495 1498 1501 1503 1506 1508 1510 1513 1516 1518 1521 1523 1525 1526 1528 1530 1531 1532 1532 1533 1533 1533 1533 1532 1532 1531 1531 1531 1530 1530 1530
1496 1484 1484 1494 1483 1482 1483 1483 1487 1496 1494 1489 1493 1494 1496 1499 1501 1504 1507 1509 1512 1515 1518 1520 1522 1524 1525 1527 1529 1530 1531 1532 1532 1532 1532 1532 1532 1532 1532 1531 1531 1531 1531 1531
1497 1493 1506 1492 1473 1474 1479 1481 1479 1481 1483 1485 1487 1491 1495 1497 1499 1503 1506 1509 1512 1515 1517 1519 1521 1523 1525 1527 1528 1530 1531 1531 1532 1532 1532 1533 1533 1533 1532 1532 1532 1532 1532 1532
1503 1504 1498 1483 1473 1473 1479 1484 1477 1479 1481 1484 1487 1493 1498 1499 1500 1502 1505 1508 1511 1514 1516 1518 1521 1522 1524 1525 1527 1529 1530 1531 1532 1532 1533 1533 1533 1533 1534 1534 1534 1534 1534 1534
1499 1502 1505 1487 1471 1469 1474 1488 1477 1476 1479 1482 1486 1497 1500 1499 1500 1503 1506 1508 1511 1514 1516 1518 1520 1521 1523 1524 1526 1527 1529 1531 1532 1533 1533 1533 1534 1534 1535 1535 1535 1536 1536 1536
1496 1498 1493 1476 1469 1469 1489 1489 1476 1475 1476 1479 1483 1488 1493 1497 1500 1503 1506 1508 1510 1513 1515 1517 1519 1521 1522 1523 1525 1527 1529 1530 1532 1533 1534 1534 1535 1535 1536 1537 1537 1538 1538 1538
1495 1500 1497 1473 1470 1476 1479 1474 1474 1474 1475 1478 1481 1487 1491 1495 1499 1502 1505 1508 1510 1512 1514 1516 1518 1520 1521 1522 1524 1526 1528 1530 1532 1533 1534 1535 1535 1536 1537 1538 1538 1539 1539 1539
1485 1487 1477 1472 1471 1472 1472 1473 1474 1474 1476 1478 1482 1486 1491 1495 1498 1502 1504 1507 1509 1511 1513 1516 1518 1519 1521 1522 1524 1526 1528 1529 1531 1533 1534 1535 1536 1536 1537 1538 1539 1539 1540 1540
1479 1477 1474 1473 1472 1472 1472 1472 1474 1475 1477 1479 1482 1487 1491 1495 1498 1501 1504 1506 1508 1510 1512 1515 1517 1519 1520 1522 1523 1525 1527 1529 1530 1532 1534 1535 1536 1537 1538 1539 1539 1540 1540 1541
1479 1477 1475 1475 1475 1474 1474 1474 1476 1478 1479 1481 1483 1487 1491 1494 1498 1501 1503 1506 1508 1510 1512 1514 1516 1518 1520 1521 1523 1525 1527 1529 1530 1532 1534 1535 1536 1537 1538 1539 1540 1541 1541 1542
1482 1478 1478 1478 1477 1476 1475 1476 1477 1479 1481 1484 1485 1488 1491 1495 1498 1501 1503 1506 1508 1510 1512 1514 1516 1518 1519 1521 1523 1524 1526 1528 1530 1532 1533 1534 1536 1537 1538 1539 1540 1541 1542 1543
1477 1477 1477 1477 1477 1477 1477 1478 1479 1481 1482 1485 1487 1489 1492 1495 1499 1501 1503 1505 1507 1509 1512 1514 1516 1517 1519 1521 1523 1524 1526 1528 1529 1531 1533 1534 1535 1537 1538 1540 1541 1542 1543 1544
1476 1477 1477 1477 1478 1479 1479 1479 1481 1482 1485 1487 1489 1491 1493 1496 1499 1501 1503 1505 1508 1510 1512 1514 1515 1517 1518 1520 1522 1524 1526 1528 1529 1531 1533 1534 1536 1537 1538 1539 1540 1542 1543 1544
1476 1477 1477 1477 1478 1480 1481 1482 1483 1485 1487 1489 1490 1491 1493 1496 1498 1501 1503 1505 1507 1509 1511 1513 1514 1516 1518 1519 1521 1523 1525 1527 1529 1531 1533 1534 1536 1537 1539 1540 1541 1542 1543 1545
1476 1477 1478 1478 1478 1480 1482 1483 1484 1486 1488 1489 1491 1492 1494 1496 1498 1501 1503 1505 1507 1508 1510 1512 1514 1515 1517 1519 1521 1523 1525 1527 1529 1530 1532 1534 1536 1537 1539 1540 1541 1543 1544 1545
1476 1477 1477 1477 1478 1479 1481 1482 1485 1487 1488 1490 1491 1493 1495 1496 1498 1500 1502 1505 1507 1508 1510 1511 1513 1515 1517 1519 1521 1523 1525 1527 1529 1531 1532 1534 1535 1537 1539 1540 1542 1543 1544 1546
1475 1476 1476 1476 1476 1478 1479 1482 1484 1486 1487 1489 1491 1493 1495 1496 1497 1499 1501 1504 1506 1507 1509 1511 1513 1515 1517 1519 1521 1523 1525 1526 1528 1530 1532 1534 1535 1537 1539 1540 1542 1543 1545 1546
1473 1474 1475 1475 1476 1478 1480 1481 1483 1485 1487 1489 1491 1493 1494 1496 1497 1499 1501 1503 1504 1506 1508 1511 1513 1515 1517 1519 1521 1523 1525 1527 1528 1530 1532 1534 1536 1538 1539 1540 1542 1544 1545 1546
1471 1472 1473 1475 1476 1478 1480 1481 1483 1485 1486 1489 1490 1492 1493 1495 1496 1498 1500 1502 1504 1506 1508 1510 1512 1514 1517 1519 1521 1523 1525 1527 1528 1530 1532 1534 1536 1538 1539 1541 1542 1544 1545 1546
1471 1472 1473 1475 1476 1478 1479 1480 1482 1484 1486 1488 1489 1491 1492 1494 1495 1497 1499 1501 1504 1506 1508 1510 1512 1514 1517 1519 1521 1523 1525 1527 1529 1531 1532 1534 1536 1538 1539 1541 1542 1543 1545 1546
1470 1471 1473 1474 1476 1477 1479 1480 1482 1483 1485 1487 1489 1491 1492 1493 1496 1498 1500 1501 1503 1505 1508 1510 1512 1515 1517 1519 1521 1523 1525 1527 1529 1531 1533 1534 1536 1537 1539 1540 1542 1543 1544 1546
1470 1471 1472 1474 1475 1477 1479 1480 1482 1483 1485 1487 1489 1490 1492 1494 1496 1498 1499 1502 1504 1506 1508 1510 1513 1515 1518 1520 1522 1524 1525 1527 1529 1531 1533 1534 1536 1537 1539 1541 1542 1543 1544 1545
1470 1471 1472 1474 1475 1476 1478 1480 1481 1483 1485 1487 1489 1491 1493 1495 1497 1499 1500 1502 1505 1507 1509 1511 1514 1516 1518 1520 1522 1524 1526 1527 1529 1531 1533 1534 1536 1538 1539 1541 1542 1543 1544 1545
1470 1471 1472 1473 1474 1476 1478 1480 1481 1483 1485 1487 1489 1492 1494 1496 1497 1499 1502 1504 1506 1508 1510 1513 1515 1517 1519 1521 1522 1524 1526 1528 1530 1531 1533 1535 1536 1538 1539 1541 1542 1543 1544 1545
1471 1471 1472 1473 1475 1477 1479 1480 1482 1483 1485 1488 1490 1493 1495 1497 1499 1501 1503 1505 1507 1510 1512 1514 1516 1518 1519 1521 1523 1525 1527 1529 1530 1532 1534 1535 1536 1538 1539 1540 1542 1543 1544 1544
1471 1472 1473 1474 1476 1477 1479 1481 1483 1484 1486 1488 1491 1493 1495 1498 1500 1502 1504 1507 1509 1511 1513 1515 1517 1519 1521 1522 1524 1526 1528 1529 1531 1532 1534 1535 1536 1538 1539 1540 1541 1542 1543 1544